Regional Weather Roundup
Issued by NWS

Home | Current Version | Previous Version | Text Only | Print | Product List | Glossary On
Versions: 1 2 3 4 5 6 7 8 9 10 11 12 13 14 15 16 17 18 19 20 21 22 23 24 25 26 27 28 29 30 31 32 33 34 35 36 37 38 39 40 41 42 43 44 45 46 47 48 49 50
000
ASUS43 KTOP 201459
RWRKS

WEATHER ROUNDUP FOR KANSAS
NATIONAL WEATHER SERVICE GOODLAND KS
900 AM CST MON NOV 20 2017

NOTE:  "FAIR" INDICATES FEW OR NO CLOUDS BELOW 12,000 FEET WITH NO
SIGNIFICANT WEATHER AND/OR OBSTRUCTIONS TO VISIBILITY.

KSZ001>006-013>018-027>032-041>047-201600-
NORTHWEST KANSAS

CITY           SKY/WX    TMP DP  RH WIND       PRES   REMARKS
GOODLAND       CLOUDY    41  13  31 W12       29.82R
HAYS           SUNNY     33  21  61 SW6       29.83F
HILL CITY      SUNNY     37  25  61 SW3       29.79F
RUSSELL        SUNNY     38  23  55 S15       29.81F WCI  29
$$

KSZ061>065-074>080-084>089-201600-
SOUTHWEST KANSAS

CITY           SKY/WX    TMP DP  RH WIND       PRES   REMARKS
DODGE CITY     SUNNY     34  18  52 SW12      29.87R WCI  25
GARDEN CITY    CLOUDY    35  21  56 W8        29.85S
GREAT BEND     SUNNY     41  20  43 SW16      29.86F
LIBERAL        CLOUDY    35  19  52 SW9       29.90S
$$

KSZ066>073-081>083-090>101-201600-
SOUTHEAST KANSAS

CITY           SKY/WX    TMP DP  RH WIND       PRES   REMARKS
CHANUTE        SUNNY     47  30  51 S16G23    30.00F
COFFEYVILLE    SUNNY     47  30  51 S21G26    30.05F
HUTCHINSON     SUNNY     43  25  49 S16       29.89R
MEDICINE LODGE   N/A     42  23  46 S10       29.92S
NEWTON         SUNNY     47  24  40 S25G33    29.89F
PARSONS        SUNNY     47  32  56 S12G20    30.04F
WICHITA INTL   MOSUNNY   45  29  53 S20       29.92F
WICHITA JABRA  SUNNY     46  27  47 S21G31    29.91F
WICHITA MCCONL SUNNY     46  25  44 SW22G30   29.92F
WINFIELD       SUNNY     47  29  49 S17G29    29.99F
$$

KSZ007>012-019>026-033>040-048>060-102>105-201600-
NORTHEAST KANSAS

CITY           SKY/WX    TMP DP  RH WIND       PRES   REMARKS
CONCORDIA      SUNNY     44  21  40 SW18      29.81S
EMPORIA        LGT RAIN  43  27  53 S16       29.93F
LAWRENCE       SUNNY     48  29  47 S10       29.93F
MANHATTAN      SUNNY     47  26  44 SW10      29.87S
OLATHE IND     SUNNY     48  29  47 S18G28    29.94F
OLATHE EXE     SUNNY     46  30  53 S13G22    29.94F
SALINA         SUNNY     44  27  51 S8        29.87F
TOPEKA BILLARD SUNNY     46  29  51 S9        29.91S
TOPEKA FORBES  SUNNY     48  28  46 S20       29.90F
$$




USA.gov is the U.S. government's official web portal to all federal, state and local government web resources and services.